Spokane, WA

6:01 PM PST on November 16, 2019 (GMT -0800)
Spokane International

Weather History for KGEG - August, 2019

Change the Weather History Date:

Sunday, August 25, 2019

  Actual Average Record
Temperature  
Mean Temperature 67 °F 67 °F  
Max Temperature 78 °F 81 °F 98 °F (1958)
Min Temperature 55 °F 54 °F 37 °F (1910)
Degree Days  
Heating Degree Days 0 2  
Month to date heating degree days 3 21  
Since 1 June heating degree days 107 189  
Since 1 July heating degree days 11 53  
Cooling Degree Days 2 4  
Month to date cooling degree days 195 147  
Year to date cooling degree days 448 390  
Since 1 June cooling degree days 434 376  
Growing Degree Days 16 (Base 50)    
Moisture  
Dew Point 40 °F    
Average Humidity 42    
Maximum Humidity 61    
Minimum Humidity 23    
Precipitation  
Precipitation 0.00 in 0.02 in 0.50 in (1965)
Month to date precipitation 0.46 0.46  
Year to date precipitation 9.10 9.98  
Snow  
Snow 0.00 in 0.00 in 0.00 in (2002)
Month to date snowfall 0.0 0.0  
Since 1 June snowfall 0.0 0.0  
Since 1 July snowfall 0.0 0.0  
Snow Depth 0.00 in    
Sea Level Pressure  
Sea Level Pressure 29.96 in    
Wind  
Wind Speed 11 mph (WSW)    
Max Wind Speed 23 mph    
Max Gust Speed 28 mph    
Visibility 10 miles    
Events      
T = Trace of Precipitation, MM = Missing Value Source: NWS Daily Summary

Daily Weather History Graph

Daily Weather History Graph

Search for Another Location

Airport or City:

Astronomy

Aug. 25, 2019 Rise Set
Actual Time 5:59 AM PDT 7:44 PM PDT
Civil Twilight 5:26 AM PDT 8:16 PM PDT
Nautical Twilight 4:46 AM PDT 8:56 PM PDT
Astronomical Twilight 4:02 AM PDT 9:40 PM PDT
Moon 12:24 AM PDT (8/25) 4:25 PM PDT (8/25)
Length of Visible Light 14h 50m
Length of Day
13h 45m
Waning Crescent, 28% of the Moon is Illuminated
Aug 25
Waning Crescent
Aug 30
New
Sep 5
First Quarter
Sep 13
Full
Sep 21
Last Quarter

Hourly Weather History & Observations

Time (PDT) Temp. Dew Point Humidity Pressure Visibility Wind Dir Wind Speed Gust Speed Precip Events Conditions
12:53 AM 63.0 °F 42.1 °F 46% 29.83 in 10.0 mi SW 8.1 mph - N/A   Mostly Cloudy
1:53 AM 61.0 °F 43.0 °F 52% 29.83 in 10.0 mi SSW 8.1 mph - N/A   Mostly Cloudy
2:53 AM 60.1 °F 43.0 °F 53% 29.84 in 10.0 mi SSW 13.8 mph - N/A   Mostly Cloudy
3:53 AM 59.0 °F 43.0 °F 55% 29.86 in 10.0 mi SSW 10.4 mph - N/A   Mostly Cloudy
4:53 AM 57.9 °F 43.0 °F 58% 29.86 in 10.0 mi SSW 12.7 mph - N/A   Mostly Cloudy
5:53 AM 55.0 °F 43.0 °F 64% 29.88 in 10.0 mi SW 13.8 mph - N/A   Partly Cloudy
6:53 AM 55.9 °F 43.0 °F 62% 29.91 in 10.0 mi SW 12.7 mph - N/A   Partly Cloudy
7:53 AM 60.1 °F 42.1 °F 51% 29.93 in 10.0 mi WSW 11.5 mph - N/A   Partly Cloudy
8:53 AM 66.0 °F 41.0 °F 40% 29.95 in 10.0 mi West 10.4 mph - N/A   Partly Cloudy
9:53 AM 69.1 °F 39.0 °F 33% 29.96 in 10.0 mi WNW 13.8 mph 23.0 mph N/A   Partly Cloudy
10:53 AM 71.1 °F 39.0 °F 31% 29.98 in 10.0 mi NW 16.1 mph 21.9 mph N/A   Partly Cloudy
11:53 AM 72.0 °F 39.9 °F 31% 29.99 in 10.0 mi West 16.1 mph - N/A   Partly Cloudy
1:53 PM 73.9 °F 39.9 °F 29% 29.99 in 10.0 mi WNW 9.2 mph 19.6 mph N/A   Scattered Clouds
2:53 PM 75.9 °F 39.0 °F 26% 30.00 in 10.0 mi WSW 12.7 mph - N/A   Mostly Cloudy
3:53 PM 77.0 °F 37.9 °F 24% 29.99 in 10.0 mi West 15.0 mph 20.7 mph N/A   Mostly Cloudy
4:53 PM 77.0 °F 37.9 °F 24% 29.99 in 10.0 mi West 16.1 mph - N/A   Mostly Cloudy
5:53 PM 77.0 °F 37.0 °F 24% 30.00 in 10.0 mi West 11.5 mph - N/A   Mostly Cloudy
6:53 PM 75.0 °F 36.0 °F 24% 30.00 in 10.0 mi West 13.8 mph - N/A   Scattered Clouds
7:53 PM 71.1 °F 37.0 °F 29% 30.02 in 10.0 mi West 8.1 mph - N/A   Scattered Clouds
8:53 PM 66.0 °F 37.0 °F 34% 30.04 in 10.0 mi West 9.2 mph - N/A   Scattered Clouds
9:53 PM 64.9 °F 37.0 °F 36% 30.04 in 10.0 mi WSW 8.1 mph - N/A   Scattered Clouds
10:53 PM 64.0 °F 37.0 °F 37% 30.06 in 10.0 mi WSW 8.1 mph - N/A   Mostly Cloudy
11:53 PM 63.0 °F 37.0 °F 38% 30.07 in 10.0 mi WNW 5.8 mph - N/A   Mostly Cloudy